This demonstration page uses our WeatherBlox Daily Observations layout. Learn more.

Left ArrowRight Arrow

40.97296, -117.73568

Hourly Observations for November 30, 2018

Temp ( °F °C ) Dew Point ( °F °C ) Humidity (%) Winds ( mph kmh ) Pressure ( in mb ) Visibility ( mi km ) Precip ( " mm )
12:36 am 00:36 Cloudy 36 2.2 34 1.1 93 93 SSW 7 11 29.71 1006 10 16 0.00 0.00
12:47 am 00:47 Cloudy 37 2.8 35 1.7 93 93 S 8 13 29.68 1005 10 16 0.00 0.00
12:56 am 00:56 Cloudy 38 3.3 35 1.7 89 89 SSW 8 13 29.62 1003 10 16 0.00 0.00
1:56 am 01:56 Cloudy 36 2.2 34 1.1 93 93 W 5 7 29.64 1004 10 16 0.00 0.00
2:56 am 02:56 Cloudy 36 2.2 35 1.7 97 97 Calm 29.65 1004 10 16 0.00 0.03
3:56 am 03:56 Cloudy 38 3.3 35 1.7 89 89 S 5 7 29.65 1004 10 16 0.00 0.00
4:56 am 04:56 Cloudy 39 3.9 34 1.1 82 82 SSW 5 7 29.66 1005 10 16 0.00 0.00
5:56 am 05:56 Cloudy 40 4.4 34 1.1 79 79 WSW 13 20 29.70 1006 10 16 0.00 0.00
6:09 am 06:09 Cloudy 40 4.4 33 0.6 77 77 WSW 13 20 29.74 1007 10 16 0.00 0.00
6:56 am 06:56 Cloudy 40 4.4 32 0 73 73 W 16 26 29.73 1007 10 16 0.00 0.00
7:56 am 07:56 Cloudy 38 3.3 33 0.6 83 83 W 12 19 29.77 1008 10 16 0.00 0.00
8:14 am 08:14 Cloudy 37 3 34 1 87 87 W 13 20 29.83 1010 10 16 0.00 0.00
8:22 am 08:22 Cloudy with Light Snow 36 2.2 33 0.6 89 89 WNW 16 26 29.88 1012 3 4 0.00 0.03
8:26 am 08:26 Cloudy with Light Snow 34 1 32 0 93 93 WNW 14 22 29.88 1012 1 2 0.00 0.00
8:37 am 08:37 Cloudy with Light Snow 34 1.1 32 0 92 92 W 10 17 29.88 1012 2 2 0.02 0.51
8:47 am 08:47 Cloudy with Light Snow 34 1.1 33 0.6 97 97 WSW 8 13 29.88 1012 3 4 0.02 0.51
8:56 am 08:56 Cloudy with Light Snow 34 1.1 33 0.6 97 97 W 8 13 29.83 1010 3 5 0.03 0.76
9:05 am 09:05 Cloudy 35 1.7 33 0.6 93 93 W 8 13 29.91 1013 9 14 0.00 0.03
9:42 am 09:42 Cloudy with Light Snow 35 1.7 33 0.6 93 93 WNW 10 17 29.91 1013 3 4 0.00 0.03
9:46 am 09:46 Cloudy with Light Snow 34 1 32 0 93 93 WNW 12 19 29.94 1014 1 2 0.00 0.00
9:56 am 09:56 Cloudy with Light Snow 34 1.1 32 0 92 92 NW 5 7 29.88 1012 2 3 0.01 0.25
9:59 am 09:59 Cloudy with Light Snow 34 1.1 33 0.6 97 97 WNW 3 6 29.91 1013 3 5 0.00 0.03
10:56 am 10:56 Cloudy 36 2.2 32 0 86 86 NNW 3 6 29.88 1012 10 16 0.00 0.03
11:52 am 11:52 Partly Cloudy 37 3 34 1 87 87 VRB 3 6 29.88 1012 10 16 0.00 0.00
11:56 am 11:56 Partly Cloudy 38 3.3 32 0 79 79 Calm 29.86 1011 10 16 0.00 0.00
12:56 pm 12:56 Mostly Cloudy 40 4.4 30 -1.1 68 68 W 13 20 29.86 1011 10 16 0.00 0.00
1:56 pm 13:56 Mostly Cloudy 42 5.6 26 -3.3 53 53 W 16 26 29.86 1011 10 16 0.00 0.00
2:56 pm 14:56 Mostly Cloudy 42 5.6 25 -3.9 51 51 W 16 26 29.89 1012 10 16 0.00 0.00
3:56 pm 15:56 Cloudy 39 3.9 24 -4.4 55 55 W 13 20 29.91 1013 10 16 0.00 0.00
4:56 pm 16:56 Clear 35 1.7 24 -4.4 64 64 WSW 9 15 29.94 1014 10 16 0.00 0.00
5:56 pm 17:56 Clear 33 0.6 22 -5.6 64 64 Calm 29.94 1014 10 16 0.00 0.00
6:56 pm 18:56 Clear 32 0 22 -5.6 66 66 SSE 5 7 29.96 1014 10 16 0.00 0.00
7:56 pm 19:56 Clear 30 -1.1 24 -4.4 79 79 SE 9 15 29.97 1015 10 16 0.00 0.00
8:56 pm 20:56 Clear 33 0.6 23 -5 66 66 SSE 6 9 29.97 1015 10 16 0.00 0.00
9:56 pm 21:56 Clear 30 -1.1 23 -5 75 75 S 8 13 29.98 1015 10 16 0.00 0.00
10:56 pm 22:56 Clear 31 -0.6 22 -5.6 69 69 S 12 19 29.96 1015 10 16 0.00 0.00
11:56 pm 23:56 Clear 30 -1.1 22 -5.6 72 72 S 12 19 29.94 1014 10 16 0.00 0.00

Powered by Vaisala Xweather